Regional Weather Roundup
Issued by NWS

Home | Current Version | Previous Version | Text Only | Print | Product List | Glossary On
Versions: 1 2 3 4 5 6 7 8 9 10 11 12 13 14 15 16 17 18 19 20 21 22 23 24 25 26 27 28 29 30 31 32 33 34 35 36 37 38 39 40 41 42 43 44 45 46 47 48 49 50
000
ASUS46 KPQR 231010
RWROR

OREGON REGIONAL WEATHER ROUNDUP
NATIONAL WEATHER SERVICE PORTLAND OR
300 AM PDT WED AUG 23 2017

NOTE: "FAIR" INDICATES FEW OR NO CLOUDS BELOW 12,000 FEET WITH
NO SIGNIFICANT WEATHER AND/OR OBSTRUCTIONS TO VISIBILITY.

ORZ001>013-231100-
NORTHWEST OREGON


CITY           SKY/WX    TMP DP  RH WIND       PRES   REMARKS
ASTORIA        CLOUDY    58  57  97 SW3       30.08S FOG
NEWPORT        CLOUDY    54  54 100 CALM      30.10F FOG
PORTLAND       FAIR      63  58  83 NW6       30.05S
VANCOUVER WA   FAIR      63  59  87 NW3       30.05S
SCAPPOOSE      FAIR      60  56  86 NW3       30.05R
HILLSBORO      FAIR      60  32  34 NW6       30.04S
AURORA         NOT AVBL
MCMINNVILLE    FAIR      59  58  96 NW6       30.05S
SALEM          FAIR      63  55  75 NW3       30.03S
CORVALLIS      FAIR      59  55  88 W7        30.04F
EUGENE         FAIR      57  54  89 E5        30.04S
$$

ORZ021-028-231100-
SOUTHWEST OREGON


CITY           SKY/WX    TMP DP  RH WIND       PRES   REMARKS
NORTH BEND     CLOUDY    57  56  96 NW5       30.07F
BROOKINGS      CLOUDY    53  52  96 CALM      30.02S FOG
ROSEBURG       FAIR      66  57  72 CALM      30.02F
SEXTON SUMMIT  CLOUDY    63  52  67 N8        30.11F
GRANTS PASS    CLOUDY    66  59  77 CALM      30.02F
MEDFORD        FAIR      70  57  63 N5        29.98S HAZE
$$

ORZ014>016-041-231100-
COLUMBIA GORGE


CITY           SKY/WX    TMP DP  RH WIND       PRES   REMARKS
TROUTDALE      FAIR      63  59  87 CALM      30.04S
HOOD RIVER     FAIR      68  55  64 W3        30.00S
THE DALLES     FAIR      74  58  57 CALM      29.95S
$$

ORZ029>031-041-044-049-050-061>064-502-503-505>511-231100-
EASTERN OREGON


CITY           SKY/WX    TMP DP  RH WIND       PRES   REMARKS
MADRAS         FAIR      59  50  72 CALM      30.07S
REDMOND        FAIR      58  47  66 CALM      30.08S HAZE
BEND           FAIR      63  52  67 CALM      30.10S
PRINEVILLE     FAIR      55  46  71 CALM      30.09S
KLAMATH FALLS  FAIR      62  55  77 E8        30.15R
LAKEVIEW       FAIR     N/A N/A N/A NE8       30.19F
HERMISTON      FAIR      74  55  51 SW9       29.92S
PENDLETON      FAIR      65  45  48 S7        29.98R
JOHN DAY       FAIR      71  44  37 CALM      30.10R
MEACHAM        FAIR      50  38  63 CALM      30.11R
LA GRANDE      NOT AVBL
BAKER CITY     FAIR      63  45  51 CALM      30.05F
BURNS          FAIR      66  37  34 W7        30.11R
ROME             N/A     76  47  35 S15       30.08F
ONTARIO        FAIR      61  53  75 CALM      29.97F
$$



USA.gov is the U.S. government's official web portal to all federal, state and local government web resources and services.